Flag for U.S.A. Weather past 2 weeks in Norfolk, Virginia, U.S.A.

Now
47 °F

Drizzle. Fog.


Feels Like: 40 °F
Forecast: 43 / 60 °F
Wind: 20 mph from North

Location: Norfolk Naval Air Station

Current Time: Mar 27, 2015 at 1:33:43 PM

Latest Report: Mar 27, 2015 at 12:59 PM


Visibility: 1 mi

Pressure: 29.81 "Hg

Humidity: 80%

Dew point: 41 °F

Location of NorfolkLocation

Historic Weather in Norfolk — Graph

°F

Norfolk temperature yesterday

Maximum temperature yesterday: 73 °F (at 1:59 PM)
Minimum temperature yesterday: 66 °F (at 2:59 AM)
Average temperature yesterday: 69 °F

Past Weeks' High & Low Weather Summary

 TemperatureHumidityPressure
High81 °F (Mar 17, 12:59 PM)87% (Mar 14, 8:59 AM)30.61 "Hg (Mar 14, 8:59 AM)
Low39 °F (Mar 13, 12:59 AM)18% (Mar 18, 3:59 PM)29.66 "Hg (Mar 27, 3:59 AM)
Average54 °F57%30.13 "Hg
* Reported Mar 12 11:59 AM — Mar 27 11:59 AM, Norfolk, Weather by CustomWeather, © 2015

Note: Actual official high and low records may vary slightly from our data, if they occured in-between our weather recording intervals... More about our weather records

Advertising

Norfolk weather history for previous 24 hours

 ConditionsComfort  
Time TempWeatherWind HumidityBarometerVisibility
11:59 AM
Fri, Mar 27
47 °FDrizzle. Fog.25 mph80%29.77 "Hg5 mi
10:59 AM49 °FMore clouds than sun.22 mph71%29.78 "Hg10 mi
9:59 AM49 °FMore clouds than sun.24 mph71%29.78 "Hg10 mi
8:59 AM49 °FOvercast.23 mph74%29.77 "Hg10 mi
7:59 AM50 °FMore clouds than sun.21 mph74%29.77 "Hg10 mi
7:52 AM50 °FMostly cloudy.23 mph74%29.78 "Hg10 mi
6:59 AM51 °FOvercast.21 mph71%29.75 "Hg10 mi
6:48 AM51 °FOvercast.20 mph74%29.74 "Hg10 mi
5:59 AM52 °FMostly cloudy.18 mph75%29.72 "Hg10 mi
4:59 AM52 °FMostly cloudy.22 mph75%29.70 "Hg10 mi
3:59 AM67 °FPassing clouds.7 mph68%29.66 "Hg10 mi
2:59 AM68 °FOvercast.10 mph65%29.68 "Hg10 mi
12:59 AM69 °FOvercast.13 mph66%29.72 "Hg10 mi
11:59 PM
Thu, Mar 26
69 °FOvercast.10 mph66%29.72 "Hg10 mi
10:59 PM70 °FOvercast.17 mph64%29.72 "Hg10 mi
9:59 PM69 °FOvercast.9 mph68%29.72 "Hg10 mi
8:59 PM69 °FOvercast.10 mph73%29.71 "Hg10 mi
7:59 PM68 °FPartly sunny.7 mph82%29.71 "Hg10 mi
6:59 PM69 °FOvercast.15 mph76%29.71 "Hg10 mi
5:59 PM69 °FPartly sunny.10 mph76%29.72 "Hg10 mi
4:59 PM67 °FLight rain. Fog.15 mph85%29.75 "Hg4 mi
3:59 PM68 °FDrizzle. Fog.15 mph82%29.78 "Hg3 mi
2:59 PM70 °FLight rain. Fog.21 mph81%29.80 "Hg2 mi
1:59 PM73 °FLight rain. Broken clouds.28 mph66%29.84 "Hg10 mi
Weather by CustomWeather, © 2015

See weather overviewHow to use our weather pages